Date String (YYYY-MM-DD hh:mm:ss) UTC,Instrument flags,Ambient pressure (hPa),Sample flow (lpm),Bypass flow (lpm),Sample temperature (°C),Ambient temperature (°C),ASC tube jacket temperature (°C),LED temperature (°C),Box temperature (°C),Sample RH (%),Span deviation,Mass concentration (μg/m³),Mass concentration (μg/m³),Mass concentration (μg/m³)
DateTimeUTC,F1_M11,P_M11,Q1_M11,Q2_M11,T1_M11,T2_M11,T3_M11,T4_M11,T5_M11,U1_M11,ZSPAN_M11,X0_M11,X2_M11,X1_M11
2022-07-10 22:00:00,,0829.8,5.00,0.00,42.0,40.7,00.0,50.6,42.9,08.8,0000.0,0010.42,0004.24,0003.72
2022-07-10 22:01:00,,0829.5,5.00,0.00,42.0,40.7,00.0,50.6,42.9,08.8,0000.0,0010.46,0004.27,0003.75
2022-07-10 22:02:00,,0829.5,5.01,0.00,42.0,40.7,00.0,50.6,42.9,09.1,0000.0,0010.36,0004.30,0003.76
2022-07-10 22:03:00,,0829.5,4.99,0.00,42.0,40.8,00.0,50.6,42.9,09.0,0000.0,0010.35,0004.32,0003.78
2022-07-10 22:04:00,,0829.6,5.01,0.00,42.0,40.8,00.0,50.6,43.0,09.0,0000.0,0010.45,0004.30,0003.79
2022-07-10 22:05:00,,0829.6,5.00,0.00,42.0,40.8,00.0,50.6,43.0,09.2,0000.0,0010.12,0004.27,0003.78
2022-07-10 22:06:00,,0829.7,5.00,0.00,42.0,40.8,00.0,50.6,43.0,09.2,0000.0,0009.89,0004.23,0003.76
2022-07-10 22:07:00,,0829.7,5.00,0.00,42.1,40.8,00.0,50.6,43.0,09.2,0000.0,0009.68,0004.23,0003.75
2022-07-10 22:08:00,,0829.6,5.00,0.00,42.1,40.9,00.0,50.6,43.0,09.3,0000.0,0008.81,0004.21,0003.73
2022-07-10 22:09:00,,0829.6,5.00,0.00,42.1,40.9,00.0,50.6,43.0,09.3,0000.0,0009.19,0004.22,0003.73
2022-07-10 22:10:00,,0829.5,5.00,0.00,42.1,40.9,00.0,50.6,43.0,09.3,0000.0,0009.32,0004.26,0003.74
2022-07-10 22:11:00,,0829.5,5.00,0.00,42.1,40.9,00.0,50.7,43.0,09.3,0000.0,0009.50,0004.29,0003.75
2022-07-10 22:12:00,,0829.5,5.00,0.00,42.1,40.9,00.0,50.7,43.0,09.4,0000.0,0009.11,0004.25,0003.74
2022-07-10 22:13:00,,0829.5,5.00,0.00,42.1,41.0,00.0,50.7,43.0,09.1,0000.0,0009.49,0004.25,0003.74
2022-07-10 22:14:00,,0829.5,4.99,0.00,42.1,41.0,00.0,50.7,43.1,09.0,0000.0,0009.46,0004.22,0003.74
2022-07-10 22:15:00,,0829.5,5.00,0.00,42.1,41.0,00.0,50.7,43.1,08.8,0000.0,0009.13,0004.22,0003.74
2022-07-10 22:16:00,,0829.5,5.00,0.00,42.1,41.1,00.0,50.7,43.1,08.8,0000.0,0008.89,0004.23,0003.74
2022-07-10 22:17:00,,0829.5,5.00,0.00,42.2,41.1,00.0,50.7,43.1,09.0,0000.0,0008.95,0004.25,0003.76
2022-07-10 22:18:00,,0829.5,4.99,0.00,42.2,41.1,00.0,50.7,43.1,08.8,0000.0,0009.02,0004.26,0003.76
2022-07-10 22:19:00,,0829.5,5.00,0.00,42.2,41.1,00.0,50.7,43.1,09.3,0000.0,0009.08,0004.30,0003.78
2022-07-10 22:20:00,,0829.5,5.00,0.00,42.2,41.2,00.0,50.7,43.1,10.7,0000.0,0008.61,0004.39,0003.83
2022-07-10 22:21:00,,0829.4,5.00,0.00,42.2,41.2,00.0,50.8,43.2,10.9,0000.0,0009.27,0004.52,0003.89
2022-07-10 22:22:00,,0829.4,5.00,0.00,42.2,41.2,00.0,50.8,43.2,10.8,0000.0,0010.08,0004.66,0003.96
2022-07-10 22:23:00,,0829.5,5.01,0.00,42.2,41.2,00.0,50.8,43.2,10.8,0000.0,0010.56,0004.85,0004.03
2022-07-10 22:24:00,,0829.5,5.00,0.00,42.3,41.2,00.0,50.8,43.2,10.7,0000.0,0010.43,0005.00,0004.12
2022-07-10 22:25:00,,0829.5,4.99,0.00,42.3,41.2,00.0,50.8,43.2,10.6,0000.0,0011.43,0005.14,0004.20
2022-07-10 22:26:00,,0829.5,5.00,0.00,42.3,41.2,00.0,50.8,43.2,10.9,0000.0,0012.49,0005.28,0004.27
2022-07-10 22:27:00,,0829.4,5.00,0.00,42.3,41.3,00.0,50.8,43.2,10.9,0000.0,0013.08,0005.39,0004.32
2022-07-10 22:28:00,,0829.3,5.00,0.00,42.3,41.3,00.0,50.9,43.3,10.6,0000.0,0013.30,0005.46,0004.36
2022-07-10 22:29:00,,0829.3,5.00,0.00,42.3,41.3,00.0,50.9,43.3,10.1,0000.0,0013.27,0005.50,0004.39
2022-07-10 22:30:00,,0829.3,5.01,0.00,42.3,41.3,00.0,50.9,43.3,10.3,0000.0,0013.13,0005.50,0004.40
2022-07-10 22:31:00,,0829.4,5.00,0.00,42.3,41.3,00.0,50.9,43.3,10.3,0000.0,0013.00,0005.45,0004.38
2022-07-10 22:32:00,,0829.2,5.00,0.00,42.4,41.3,00.0,50.9,43.3,10.6,0000.0,0012.32,0005.37,0004.34
2022-07-10 22:33:00,,0829.2,5.00,0.00,42.4,41.3,00.0,50.9,43.3,10.3,0000.0,0012.36,0005.26,0004.30
2022-07-10 22:34:00,,0829.3,5.00,0.00,42.4,41.3,00.0,50.9,43.3,10.4,0000.0,0012.64,0005.10,0004.24
2022-07-10 22:35:00,,0829.2,5.00,0.00,42.4,41.3,00.0,50.9,43.3,10.1,0000.0,0012.42,0004.97,0004.18
2022-07-10 22:36:00,,0829.2,5.00,0.00,42.4,41.4,00.0,51.0,43.3,10.0,0000.0,0011.60,0004.93,0004.13
2022-07-10 22:37:00,,0829.2,5.00,0.00,42.4,41.4,00.0,51.0,43.4,10.1,0000.0,0010.68,0004.85,0004.09
2022-07-10 22:38:00,,0829.2,5.00,0.00,42.4,41.4,00.0,51.0,43.4,09.9,0000.0,0010.65,0004.79,0004.06
2022-07-10 22:39:00,,0829.2,5.00,0.00,42.4,41.4,00.0,51.0,43.4,10.0,0000.0,0011.03,0004.78,0004.05
2022-07-10 22:40:00,,0829.3,5.00,0.00,42.5,41.4,00.0,51.0,43.4,10.1,0000.0,0011.06,0004.77,0004.04
2022-07-10 22:41:00,,0829.3,5.00,0.00,42.5,41.4,00.0,51.0,43.4,10.1,0000.0,0011.29,0004.81,0004.06
2022-07-10 22:42:00,,0829.3,5.00,0.00,42.5,41.4,00.0,51.0,43.4,10.0,0000.0,0011.62,0004.83,0004.07
2022-07-10 22:43:00,,0829.3,5.00,0.00,42.5,41.5,00.0,51.0,43.4,10.1,0000.0,0011.66,0004.82,0004.06
2022-07-10 22:44:00,,0829.3,5.00,0.00,42.5,41.5,00.0,51.1,43.4,10.2,0000.0,0011.00,0004.83,0004.06
2022-07-10 22:45:00,,0829.3,5.00,0.00,42.5,41.5,00.0,51.1,43.5,09.5,0000.0,0010.93,0004.87,0004.08
2022-07-10 22:46:00,,0829.4,5.00,0.00,42.5,41.5,00.0,51.1,43.5,09.3,0000.0,0011.55,0004.87,0004.09
2022-07-10 22:47:00,,0829.4,5.01,0.00,42.5,41.5,00.0,51.1,43.5,10.1,0000.0,0011.41,0004.84,0004.11
2022-07-10 22:48:00,,0829.3,4.99,0.00,42.6,41.5,00.0,51.1,43.5,09.4,0000.0,0011.33,0004.80,0004.11
2022-07-10 22:49:00,,0829.3,5.01,0.00,42.6,41.5,00.0,51.1,43.5,09.9,0000.0,0011.24,0004.80,0004.12
2022-07-10 22:50:00,,0829.2,4.99,0.00,42.6,41.5,00.0,51.1,43.5,09.8,0000.0,0010.70,0004.80,0004.15
2022-07-10 22:51:00,,0829.3,5.01,0.00,42.6,41.6,00.0,51.1,43.5,09.8,0000.0,0010.67,0004.85,0004.16
2022-07-10 22:52:00,,0829.2,4.99,0.00,42.6,41.6,00.0,51.1,43.5,09.8,0000.0,0011.04,0004.82,0004.16
2022-07-10 22:53:00,,0829.2,5.00,0.00,42.6,41.6,00.0,51.2,43.5,09.9,0000.0,0010.69,0004.79,0004.18
2022-07-10 22:54:00,,0829.2,5.01,0.00,42.6,41.6,00.0,51.2,43.5,09.9,0000.0,0010.73,0004.81,0004.20
2022-07-10 22:55:00,,0829.3,4.99,0.00,42.6,41.6,00.0,51.2,43.6,10.0,0000.0,0010.74,0004.83,0004.23
2022-07-10 22:56:00,,0829.3,5.01,0.00,42.7,41.6,00.0,51.2,43.6,09.9,0000.0,0011.04,0004.83,0004.25
2022-07-10 22:57:00,,0829.4,4.99,0.00,42.7,41.6,00.0,51.2,43.6,10.0,0000.0,0011.19,0004.89,0004.28
2022-07-10 22:58:00,,0829.3,5.01,0.00,42.7,41.6,00.0,51.2,43.6,10.0,0000.0,0011.38,0004.93,0004.30
2022-07-10 22:59:00,,0829.3,5.00,0.00,42.7,41.6,00.0,51.2,43.6,10.0,0000.0,0011.96,0004.97,0004.31
